Location: Newark
(31.5350°N, 35.0986°E)
Time: 23:12:15
(UTC+00:00)

S-56A Canister/Altair - All Passes

Search period start: 22 September 2019 00:00
Search period end: 02 October 2019 00:00
Orbit: 633 x 2499 km, 38.9° (Epoch: 21 September)

Date Brightness Start Highest point End Pass type
(mag) Time Alt. Az. Time Alt. Az. Time Alt. Az.
22 Sep - 05:07:39 10° S 05:17:40 25° SE 05:28:34 10° E daylight
22 Sep - 07:08:44 10° SW 07:22:57 66° SE 07:37:17 10° ENE daylight
22 Sep - 09:14:52 10° WSW 09:30:10 75° NNW 09:43:14 10° ENE daylight
22 Sep - 11:23:35 10° WNW 11:38:08 62° N 11:48:44 10° E daylight
22 Sep - 13:32:05 10° WNW 13:45:00 86° NNE 13:53:26 10° ESE daylight
22 Sep - 15:40:18 10° WNW 15:49:09 33° SW 15:55:24 10° SSE daylight
23 Sep - 04:35:44 10° S 04:44:28 21° SE 04:54:05 10° E daylight
23 Sep - 06:35:43 10° SW 06:49:22 60° SE 07:03:50 10° ENE daylight
23 Sep - 08:41:12 10° WSW 08:56:24 78° NNW 09:10:05 10° ENE daylight
23 Sep - 10:49:37 10° W 11:04:30 63° N 11:15:50 10° E daylight
23 Sep - 12:58:12 10° WNW 13:11:46 81° NNE 13:20:50 10° ESE daylight
23 Sep - 15:06:20 10° WNW 15:16:27 41° SW 15:23:20 10° SSE daylight
24 Sep - 04:04:14 10° SSE 04:11:21 17° SE 04:19:11 10° E daylight
24 Sep - 06:02:51 10° SSW 06:15:51 54° SE 06:30:15 10° ENE daylight
24 Sep - 08:07:40 10° WSW 08:22:37 82° NNW 08:36:52 10° ENE daylight
24 Sep - 10:15:42 10° W 10:30:48 63° N 10:42:50 10° ENE daylight
24 Sep - 12:24:17 10° WNW 12:38:27 77° NNE 12:48:09 10° ESE daylight
24 Sep - 14:32:24 10° WNW 14:43:38 49° SW 14:51:12 10° SSE daylight
25 Sep - 03:33:30 10° SSE 03:38:18 13° SE 03:43:28 10° ESE daylight
25 Sep - 05:30:08 10° SSW 05:42:24 49° SE 05:56:32 10° ENE daylight
25 Sep - 07:34:16 10° WSW 07:48:51 86° NNW 08:03:33 10° ENE daylight
25 Sep - 09:41:51 10° W 09:57:02 64° N 10:09:44 10° ENE daylight
25 Sep - 11:50:23 10° WNW 12:04:59 74° NNE 12:15:24 10° ESE daylight
25 Sep - 13:58:28 10° WNW 14:10:42 57° SW 14:18:55 10° SE daylight
25 Sep - 16:10:07 10° WSW 16:13:29 12° WSW 16:16:28 10° SW visible
26 Sep - 04:57:32 10° SSW 05:09:02 43° SE 05:22:42 10° ENE daylight
26 Sep - 07:01:00 10° WSW 07:15:06 89° SSE 07:30:08 10° ENE daylight
26 Sep - 09:08:06 10° W 09:23:12 66° N 09:36:34 10° ENE daylight
26 Sep - 11:16:29 10° WNW 11:31:26 71° NNE 11:42:32 10° E daylight
26 Sep - 13:24:33 10° WNW 13:37:40 65° SW 13:46:32 10° SE daylight
26 Sep - 15:34:48 10° W 15:40:52 17° SW 15:45:49 10° SSW daylight
27 Sep - 04:25:08 10° SSW 04:35:46 37° SE 04:48:44 10° ENE daylight
27 Sep - 06:27:51 10° WSW 06:41:25 84° SSE 06:56:38 10° ENE daylight
27 Sep - 08:34:25 10° W 08:49:21 67° N 09:03:18 10° ENE daylight
27 Sep - 10:42:38 10° WNW 10:57:48 69° NNE 11:09:35 10° E daylight
27 Sep - 12:50:38 10° WNW 13:04:30 72° SSW 13:14:04 10° SE daylight
27 Sep - 15:00:08 10° W 15:08:10 22° SW 15:14:25 10° S daylight
28 Sep - 03:52:53 10° S 04:02:36 32° SE 04:14:36 10° ENE daylight
28 Sep - 05:54:51 10° SW 06:07:46 78° SSE 06:23:02 10° ENE daylight
28 Sep - 08:00:52 10° W 08:15:29 69° NNW 08:29:57 10° ENE daylight
28 Sep - 10:08:49 10° WNW 10:24:05 67° N 10:36:31 10° E daylight
28 Sep - 12:16:46 10° WNW 12:31:14 79° SSW 12:41:28 10° SE daylight
28 Sep - 14:25:44 10° WNW 14:35:25 28° SW 14:42:41 10° S daylight
29 Sep - 03:20:50 10° S 03:29:33 27° SE 03:40:18 10° E daylight
29 Sep - 05:21:58 10° SW 05:34:13 72° SE 05:49:22 10° ENE daylight
29 Sep - 07:27:26 10° W 07:41:37 71° NNW 07:56:30 10° ENE daylight
29 Sep - 09:35:05 10° WNW 09:50:17 66° N 10:03:22 10° E daylight
29 Sep - 11:42:55 10° WNW 11:57:51 85° SSW 12:08:47 10° ESE daylight
29 Sep - 13:51:30 10° WNW 14:02:33 34° SW 14:10:44 10° SSE daylight
30 Sep - 02:49:03 10° S 02:56:34 22° SE 03:05:47 10° E visible
30 Sep - 04:49:12 10° SW 05:00:45 66° SE 05:15:36 10° ENE daylight
30 Sep - 06:54:06 10° W 07:07:47 74° NNW 07:22:58 10° ENE daylight
30 Sep - 09:01:24 10° WNW 09:16:26 65° N 09:30:06 10° E daylight
30 Sep - 11:09:06 10° WNW 11:24:21 90° NNE 11:35:59 10° ESE daylight
30 Sep - 13:17:21 10° WNW 13:29:36 40° SW 13:38:35 10° SSE daylight
01 Oct - 02:17:36 10° SSE 02:23:42 17° SE 02:30:55 10° E visible
01 Oct - 04:16:35 10° SW 04:27:24 60° SE 04:41:46 10° ENE daylight
01 Oct - 06:20:54 10° WSW 06:34:00 77° NNW 06:49:22 10° ENE daylight
01 Oct - 08:27:50 10° WNW 08:42:33 65° N 08:56:44 10° E daylight
01 Oct - 10:35:21 10° WNW 10:50:45 85° NNE 11:03:03 10° ESE daylight
01 Oct - 12:43:19 10° WNW 12:56:31 46° SW 13:06:19 10° SSE daylight
